Location: Cedar Brake
(32.2526°N, 97.8459°W)
Time: 08:28:27
(UTC+00:00)

METEOR-M - Pass Details

Date: 22 April 2026
Orbit: 812 x 817 km, 98.7° (Epoch: 14 May)

Event Time Altitude Azimuth Distance (km) Brightness Sun altitude
Rises 09:59:15 0° 9° (N) 3,338 7.9 -23.1°
Reaches altitude 10° 10:01:37 10° 6° (N) 2,404 7.0 -22.6°
Maximum altitude 10:06:52 66° 286° (WNW) 887 4.1 -21.7°
Enters shadow 10:08:24 45° 224° (SW) 1,098 4.3 -21.4°
